NF3Q Weather Reports


Display with metric or nautical units.
time (UTC)temp
F
wind
direction
speed
MPH
gust
MPH
rain 1hr
in
rain 24hr
in
rain mn
in
humidity
%
barometer
mb
20260507220504 63 5 0.0 3.0 0.00 0.00 0.00 35 1009.9
20260507220016 63 275 0.0 10.0 0.00 0.00 0.00 34 1009.9
20260507215505 63 331 0.0 10.0 0.00 0.00 0.00 34 1009.9
20260507215006 63 341 1.0 8.0 0.00 0.00 0.00 37 1009.8
20260507214519 62 28 1.0 7.0 0.00 0.00 0.00 34 1009.8
20260507214008 62 297 0.0 11.0 0.00 0.00 0.00 36 1009.7
20260507213507 61 313 1.0 11.0 0.00 0.00 0.00 33 1009.6
20260507213027 62 348 2.0 11.0 0.00 0.00 0.00 33 1009.7
20260507212509 63 333 1.0 9.0 0.00 0.00 0.00 36 1009.9
20260507212007 62 347 1.0 9.0 0.00 0.00 0.00 34 1009.9
20260507211505 62 316 0.0 10.0 0.00 0.00 0.00 35 1009.8
20260507211005 62 5 1.0 10.0 0.00 0.00 0.00 35 1009.8
20260507210504 63 326 0.0 4.0 0.00 0.00 0.00 36 1009.6
20260507210012 62 275 0.0 3.0 0.00 0.00 0.00 36 1009.5
20260507205508 62 352 0.0 4.0 0.00 0.00 0.00 36 1009.4
20260507205005 62 36 0.0 10.0 0.00 0.00 0.00 36 1009.7
20260507204517 62 306 0.0 10.0 0.00 0.00 0.00 36 1009.6
20260507204006 62 331 2.0 7.0 0.00 0.00 0.00 35 1009.5
20260507203506 62 329 0.0 4.0 0.00 0.00 0.00 34 1009.5
20260507203037 63 279 0.0 5.0 0.00 0.00 0.00 34 1009.6
20260507202512 63 288 0.0 5.0 0.00 0.00 0.00 36 1009.6
20260507202010 63 202 1.0 6.0 0.00 0.00 0.00 35 1009.5
20260507201523 63 331 0.0 6.0 0.00 0.00 0.00 36 1009.5
20260507201004 63 13 0.0 6.0 0.00 0.00 0.00 35 1009.6
20260507200504 63 311 1.0 6.0 0.00 0.00 0.00 35 1009.8
20260507200009 62 188 0.0 5.0 0.00 0.00 0.00 35 1009.7
20260507195504 62 266 0.0 9.0 0.00 0.00 0.00 36 1009.8
20260507195004 63 178 2.0 9.0 0.00 0.00 0.00 37 1009.8
20260507194525 62 182 0.0 6.0 0.00 0.00 0.00 35 1009.8
20260507194007 63 273 1.0 10.0 0.00 0.00 0.00 36 1009.8
20260507193507 63 236 3.0 9.0 0.00 0.00 0.00 35 1009.8
20260507193020 62 302 0.0 6.0 0.00 0.00 0.00 34 1010.0
20260507192508 63 281 2.0 8.0 0.00 0.00 0.00 35 1009.9
20260507192009 63 290 2.0 10.0 0.00 0.00 0.00 36 1009.9
20260507191529 63 267 1.0 10.0 0.00 0.00 0.00 36 1009.9
20260507191015 64 301 1.0 7.0 0.00 0.00 0.00 37 1010.0
20260507190504 63 289 0.0 8.0 0.00 0.00 0.00 37 1010.0
20260507190013 62 321 1.0 8.0 0.00 0.00 0.00 40 1010.1
20260507185507 61 315 0.0 7.0 0.00 0.00 0.00 1010.3
20260507185004 61 289 0.0 7.0 0.00 0.00 0.00 40 1010.3
20260507184520 61 280 0.0 7.0 0.00 0.00 0.00 40 1010.3
20260507184004 61 304 0.0 8.0 0.00 0.00 0.00 38 1010.4
20260507183506 61 274 2.0 8.0 0.00 0.00 0.00 39 1010.4
20260507183018 61 199 1.0 6.0 0.00 0.00 0.00 39 1010.4
20260507182507 61 217 1.0 8.0 0.00 0.00 0.00 38 1010.4
20260507182009 61 329 1.0 8.0 0.00 0.00 0.00 41 1010.4
20260507181521 61 290 0.0 6.0 0.00 0.00 0.00 43 1010.6
20260507181013 61 309 0.0 2.0 0.00 0.00 0.00 43 1010.7
20260507180511 61 316 0.0 1.0 0.00 0.00 0.00 41 1010.7
20260507180028 61 236 0.0 4.0 0.00 0.00 0.00 42 1010.8
20260507175503 60 350 0.0 4.0 0.00 0.00 0.00 43 1010.9
20260507175003 60 350 1.0 4.0 0.00 0.00 0.00 41 1010.9
20260507174518 60 322 1.0 6.0 0.00 0.00 0.00 41 1011.0
20260507174008 61 123 0.0 7.0 0.00 0.00 0.00 40 1011.0
20260507173504 60 201 2.0 7.0 0.00 0.00 0.00 39 1011.1
20260507173045 60 242 1.0 8.0 0.00 0.00 0.00 39 1011.1
20260507172505 61 306 1.0 8.0 0.00 0.00 0.00 40 1011.1
20260507172008 61 214 0.0 4.0 0.00 0.00 0.00 41 1011.2
20260507171525 60 229 0.0 8.0 0.00 0.00 0.00 42 1011.2
20260507171009 60 313 2.0 8.0 0.00 0.00 0.00 42 1011.3
20260507170508 60 219 0.0 3.0 0.00 0.00 0.00 41 1011.3
20260507170026 59 332 0.0 6.0 0.00 0.00 0.00 44 1011.4
20260507165509 59 96 0.0 6.0 0.00 0.00 0.00 40 1011.4
20260507165011 59 13 0.0 3.0 0.00 0.00 0.00 40 1011.5
20260507164511 59 335 0.0 4.0 0.00 0.00 0.00 41 1011.5
20260507164004 59 300 0.0 4.0 0.00 0.00 0.00 43 1011.6
20260507163512 59 298 0.0 4.0 0.00 0.00 0.00 43 1011.7
20260507163016 59 219 0.0 3.0 0.00 0.00 0.00 41 1011.7
20260507162509 59 327 0.0 2.0 0.00 0.00 0.00 45 1011.7
20260507162006 59 214 0.0 0.0 0.00 0.00 0.00 43 1011.8
20260507161520 59 286 0.0 1.0 0.00 0.00 0.00 44 1011.9
20260507161009 59 286 0.0 2.0 0.00 0.00 0.00 43 1011.9
20260507160506 58 182 0.0 7.0 0.00 0.00 0.00 43 1012.0
20260507160024 58 244 0.0 7.0 0.00 0.00 0.00 43 1012.1
20260507155515 59 18 0.0 4.0 0.00 0.00 0.00 43 1012.1
20260507155014 59 288 0.0 6.0 0.00 0.00 0.00 43 1012.1
20260507154528 59 360 1.0 6.0 0.00 0.00 0.00 43 1012.1
20260507154011 59 301 0.0 5.0 0.00 0.00 0.00 42 1012.2
20260507153504 59 145 1.0 5.0 0.00 0.00 0.00 41 1012.3
20260507153016 59 246 1.0 5.0 0.00 0.00 0.00 44 1012.3
20260507152504 58 205 0.0 3.0 0.00 0.00 0.00 45 1012.2
20260507152013 58 57 0.0 3.0 0.00 0.00 0.00 46 1012.3
20260507151518 58 242 0.0 10.0 0.00 0.00 0.00 44 1012.3
20260507151011 57 194 3.0 10.0 0.00 0.00 0.00 46 1012.5
20260507150513 57 5 1.0 7.0 0.00 0.00 0.00 1012.5
20260507150033 57 168 0.0 7.0 0.00 0.00 0.00 46 1012.8
20260507145507 57 323 1.0 5.0 0.00 0.00 0.00 46 1012.9
20260507145016 57 202 0.0 6.0 0.00 0.00 0.00 49 1013.0
20260507144527 58 275 0.0 6.0 0.00 0.01 0.00 46 1013.0
20260507144011 58 172 0.0 5.0 0.00 0.01 0.00 46 1013.0
20260507143512 57 217 0.0 4.0 0.00 0.01 0.00 50 1013.2
20260507143026 57 180 0.0 5.0 0.00 0.01 0.00 50 1013.1
20260507142505 57 216 0.0 5.0 0.00 0.01 0.00 50 1013.2
20260507142011 57 150 0.0 1.0 0.00 0.01 0.00 53 1013.2
20260507141518 57 232 0.0 2.0 0.00 0.01 0.00 1013.2
20260507141007 56 192 0.0 2.0 0.00 0.01 0.00 58 1013.3
20260507140508 56 281 0.0 2.0 0.00 0.01 0.00 58 1013.4
20260507140023 55 317 0.0 2.0 0.00 0.02 0.00 57 1013.4
20260507135508 55 275 0.0 4.0 0.00 0.02 0.00 56 1013.6
20260507135008 55 204 1.0 4.0 0.00 0.02 0.00 54 1013.6
20260507134504 55 329 0.0 4.0 0.00 0.02 0.00 56 1013.5
20260507134002 54 205 0.0 9.0 0.00 0.02 0.00 58 1013.5
20260507133504 54 219 0.0 9.0 0.00 0.02 0.00 59 1013.6
20260507133018 54 205 0.0 4.0 0.00 0.02 0.00 62 1013.6
20260507132504 53 284 0.0 0.0 0.00 0.02 0.00 61 1013.7
20260507132008 53 169 0.0 0.0 0.00 0.02 0.00 64 1013.8
20260507131518 52 105 0.0 0.0 0.00 0.02 0.00 66 1013.8
20260507131006 51 65 0.0 0.0 0.00 0.02 0.00 69 1013.7
20260507130505 51 142 0.0 0.0 0.00 0.02 0.00 72 1013.7
20260507130020 50 142 0.0 0.0 0.00 0.02 0.00 75 1013.7
20260507125507 48 112 0.0 0.0 0.00 0.02 0.00 76 1013.8
20260507125006 48 173 0.0 0.0 0.00 0.02 0.00 76 1013.8
20260507124528 47 98 0.0 0.0 0.00 0.03 0.00 78 1013.8
20260507124010 45 80 0.0 0.0 0.00 0.03 0.00 82 1013.8
20260507123504 44 143 0.0 0.0 0.00 0.03 0.00 84 1013.8
20260507123013 44 139 0.0 0.0 0.00 0.04 0.00 86 1013.9
20260507122503 43 139 0.0 0.0 0.00 0.04 0.00 87 1014.1
20260507122004 42 190 0.0 0.0 0.00 0.04 0.00 87 1013.9
20260507121518 42 188 0.0 0.0 0.00 0.04 0.00 88 1013.9
20260507121007 41 273 0.0 0.0 0.00 0.05 0.00 89 1013.8
20260507120504 41 279 0.0 0.0 0.00 0.05 0.00 89 1013.9
20260507120020 41 281 0.0 0.0 0.00 0.05 0.00 90 1014.0
20260507115506 40 288 0.0 0.0 0.00 0.06 0.00 91 1013.9
20260507115008 40 287 0.0 0.0 0.00 0.06 0.00 91 1013.9
20260507114521 39 287 0.0 0.0 0.00 0.06 0.00 91 1013.8
20260507114008 39 288 0.0 0.0 0.00 0.06 0.00 91 1013.8
20260507113509 39 287 0.0 0.0 0.00 0.06 0.00 91 1013.8
20260507113030 38 287 0.0 0.0 0.00 0.06 0.00 91 1013.7
20260507112505 38 287 0.0 0.0 0.00 0.06 0.00 91 1013.7
20260507112005 38 287 0.0 0.0 0.00 0.06 0.00 91 1013.8
20260507111511 38 287 0.0 0.0 0.00 0.06 0.00 91 1013.9
20260507111004 38 287 0.0 0.0 0.00 0.06 0.00 91 1013.7
20260507110504 38 287 0.0 0.0 0.00 0.07 0.00 90 1013.7
20260507110017 38 287 0.0 0.0 0.00 0.08 0.00 90 1013.7
20260507105506 38 287 0.0 0.0 0.00 0.09 0.00 90 1013.6
20260507105007 38 287 0.0 0.0 0.00 0.10 0.00 90 1013.5
20260507104520 38 287 0.0 0.0 0.00 0.11 0.00 90 1013.5
20260507104009 38 287 0.0 0.0 0.00 0.12 0.00 90 1013.5
20260507103509 38 287 0.0 0.0 0.00 0.13 0.00 90 1013.5
20260507103029 38 287 0.0 0.0 0.00 0.14 0.00 89 1013.5
20260507102507 38 287 0.0 0.0 0.00 0.16 0.00 89 1013.4
20260507102010 38 287 0.0 0.0 0.00 0.17 0.00 89 1013.5
20260507101534 38 287 0.0 0.0 0.00 0.19 0.00 89 1013.4
20260507101004 38 287 0.0 0.0 0.00 0.22 0.00 89 1013.3
20260507100504 38 287 0.0 0.0 0.00 0.24 0.00 89 1013.4
20260507100021 38 288 0.0 0.0 0.00 0.25 0.00 89 1013.3
20260507095505 38 287 0.0 0.0 0.00 0.28 0.00 89 1013.3
20260507095010 38 287 0.0 0.0 0.00 0.30 0.00 89 1013.3
20260507094518 39 287 0.0 0.0 0.00 0.31 0.00 88 1013.3
20260507094010 39 288 0.0 0.0 0.00 0.32 0.00 88 1013.4
20260507093508 39 287 0.0 0.0 0.00 0.34 0.00 89 1013.4
20260507093022 39 287 0.0 0.0 0.00 0.36 0.00 88 1013.4
20260507092506 39 287 0.0 0.0 0.00 0.37 0.00 88 1013.4
20260507092009 39 287 0.0 0.0 0.00 0.38 0.00 88 1013.4
20260507091531 39 287 0.0 0.0 0.00 0.40 0.00 88 1013.6
20260507091013 40 287 0.0 0.0 0.00 0.42 0.00 88 1013.5
20260507090509 40 287 0.0 0.0 0.00 0.44 0.00 88 1013.5
20260507090013 40 287 0.0 0.0 0.00 0.45 0.00 87 1013.5
20260507085503 40 287 0.0 0.0 0.00 0.47 0.00 87 1013.4
20260507085008 40 287 0.0 0.0 0.00 0.48 0.00 87 1013.3
20260507084521 41 287 0.0 0.0 0.00 0.49 0.00 87 1013.4
20260507084008 41 287 0.0 0.0 0.00 0.51 0.00 87 1013.4
20260507083507 41 287 0.0 0.0 0.00 0.51 0.00 86 1013.4
20260507083020 41 287 0.0 0.0 0.00 0.52 0.00 86 1013.3
20260507082509 41 287 0.0 0.0 0.00 0.52 0.00 86 1013.4
20260507082008 41 288 0.0 0.0 0.00 0.52 0.00 86 1013.4
20260507081527 42 287 0.0 0.0 0.00 0.52 0.00 85 1013.4
20260507081009 42 287 0.0 0.0 0.00 0.52 0.00 85 1013.4
20260507080508 42 287 0.0 0.0 0.00 0.52 0.00 85 1013.5
20260507080027 42 287 0.0 0.0 0.00 0.52 0.00 84 1013.5
20260507075508 43 287 0.0 0.0 0.00 0.52 0.00 84 1013.4
20260507075005 43 287 0.0 0.0 0.00 0.52 0.00 83 1013.4
20260507074515 43 288 0.0 0.0 0.00 0.52 0.00 83 1013.4
20260507074004 43 287 0.0 0.0 0.00 0.52 0.00 81 1013.4
20260507073508 44 287 0.0 0.0 0.00 0.52 0.00 81 1013.3
20260507073018 44 287 0.0 0.0 0.00 0.52 0.00 79 1013.4
20260507072507 44 287 0.0 0.0 0.00 0.52 0.00 79 1013.4
20260507072007 44 287 0.0 0.0 0.00 0.52 0.00 78 1013.4
20260507071526 45 287 0.0 0.0 0.00 0.52 0.00 77 1013.4
20260507071008 45 287 0.0 0.0 0.00 0.54 0.00 76 1013.4
20260507070508 45 287 0.0 0.0 0.00 0.54 0.00 76 1013.4
20260507070039 46 287 0.0 0.0 0.00 0.54 0.00 74 1013.5
20260507065510 46 287 0.0 0.0 0.00 0.54 0.00 72 1013.5
20260507065011 46 287 0.0 0.0 0.00 0.55 0.00 71 1013.4
20260507064530 47 287 0.0 0.0 0.00 0.56 0.00 71 1013.3
20260507064009 47 287 0.0 0.0 0.00 0.56 0.00 70 1013.3
20260507063507 47 287 0.0 0.0 0.00 0.57 0.00 69 1013.3
20260507063020 48 288 0.0 0.0 0.00 0.57 0.00 68 1013.3
20260507062510 48 288 0.0 0.0 0.00 0.58 0.00 67 1013.3
20260507062008 48 287 0.0 0.0 0.00 0.58 0.00 66 1013.3
20260507061525 48 287 0.0 0.0 0.00 0.58 0.00 65 1013.3
20260507061011 48 287 0.0 0.0 0.00 0.58 0.00 65 1013.4
20260507060508 48 287 0.0 0.0 0.00 0.60 0.00 64 1013.4
20260507060024 49 287 0.0 0.0 0.00 0.60 0.00 64 1013.4
20260507055508 49 287 0.0 0.0 0.00 0.60 0.00 65 1013.6
20260507055009 49 287 0.0 0.0 0.00 0.60 0.00 65 1013.7
20260507054528 49 287 0.0 0.0 0.00 0.60 0.00 64 1013.8
20260507054009 49 288 0.0 0.0 0.00 0.60 0.00 65 1013.8
20260507053510 49 288 0.0 0.0 0.00 0.61 0.00 64 1014.0
20260507053031 49 304 0.0 0.0 0.00 0.61 0.00 65 1014.0
20260507052504 49 311 0.0 0.0 0.00 0.62 0.00 65 1014.1
20260507052009 49 314 0.0 0.0 0.00 0.63 0.00 65 1014.1
20260507051520 49 302 0.0 0.0 0.00 0.63 0.00 65 1014.1
20260507051009 49 305 0.0 0.0 0.00 0.63 0.00 64 1014.0
20260507050503 49 308 0.0 0.0 0.00 0.64 0.00 64 1014.1
20260507050015 49 311 0.0 0.0 0.00 0.64 0.00 64 1014.1
20260507045504 50 311 0.0 0.0 0.00 0.64 0.00 64 1014.1
20260507045005 50 298 0.0 0.0 0.00 0.64 0.00 64 1014.1
20260507044508 50 302 0.0 0.0 0.00 0.64 0.00 65 1014.1
20260507044010 50 302 0.0 0.0 0.00 0.64 0.00 65 1014.1
20260507043504 50 302 0.0 0.0 0.00 0.64 0.00 65 1014.1
20260507043014 50 302 0.0 0.0 0.00 0.64 0.00 62 1014.1
20260507042507 50 297 0.0 0.0 0.00 0.64 0.00 62 1014.2
20260507042007 50 297 0.0 0.0 0.00 0.64 0.00 62 1013.8
20260507041521 50 297 0.0 0.0 0.00 0.64 0.00 63 1013.9
20260507041011 50 297 0.0 0.0 0.00 0.64 0.00 62 1014.0
20260507040509 50 297 0.0 0.0 0.00 0.64 0.00 63 1013.9
20260507040006 50 297 0.0 0.0 0.00 0.64 0.00 63 1013.8
20260507035504 50 297 0.0 0.0 0.00 0.64 0.64 61 1013.7
20260507035008 50 297 0.0 0.0 0.00 0.64 0.64 63 1013.8
20260507034509 51 297 0.0 0.0 0.00 0.64 0.64 61 1013.8
20260507034003 51 297 0.0 0.0 0.00 0.64 0.64 61 1013.7
20260507033503 51 295 0.0 0.0 0.00 0.64 0.64 61 1013.8
20260507033013 51 300 0.0 0.0 0.00 0.64 0.64 63 1013.5
20260507032504 51 298 0.0 0.0 0.00 0.64 0.64 62 1013.7
20260507032008 51 299 0.0 0.0 0.00 0.64 0.64 62 1013.7
20260507031521 51 299 0.0 0.0 0.00 0.64 0.64 62 1013.5
20260507031009 51 296 0.0 0.0 0.00 0.64 0.64 62 1013.4
20260507030509 51 296 0.0 0.0 0.00 0.64 0.64 63 1013.5
20260507030025 51 341 0.0 0.0 0.00 0.64 0.64 62 1013.5
20260507025509 51 286 0.0 0.0 0.00 0.64 0.64 62 1013.5
20260507025005 51 286 0.0 0.0 0.00 0.64 0.64 61 1013.4
20260507024509 51 286 0.0 0.0 0.00 0.64 0.64 61 1013.4
20260507024005 51 282 0.0 0.0 0.00 0.64 0.64 60 1013.2
20260507023506 51 326 0.0 0.0 0.00 0.64 0.64 60 1013.3
20260507023009 51 21 0.0 0.0 0.00 0.64 0.64 59 1013.2
20260507022503 52 5 0.0 0.0 0.00 0.64 0.64 60 1013.1
20260507022007 52 9 0.0 0.0 0.00 0.64 0.64 61 1013.2
20260507021514 52 5 0.0 1.0 0.00 0.64 0.64 61 1013.3
20260507021008 52 5 0.0 1.0 0.00 0.64 0.64 58 1013.2
20260507020508 52 304 0.0 0.0 0.00 0.64 0.64 59 1013.1
20260507020023 52 36 0.0 0.0 0.00 0.64 0.64 59 1013.0
20260507015508 52 23 0.0 0.0 0.00 0.64 0.64 59 1013.1
20260507015008 52 24 0.0 0.0 0.00 0.64 0.64 59 1012.9
20260507014527 52 24 0.0 0.0 0.00 0.64 0.64 58 1012.5
20260507014004 52 13 0.0 0.0 0.00 0.64 0.64 59 1012.7
20260507013505 52 13 0.0 0.0 0.00 0.64 0.64 58 1012.7
20260507013008 52 13 0.0 2.0 0.00 0.64 0.64 57 1012.8
20260507012505 52 22 0.0 2.0 0.00 0.64 0.64 59 1012.7
20260507012007 53 321 0.0 0.0 0.00 0.64 0.64 59 1012.5
20260507011528 53 352 0.0 0.0 0.00 0.64 0.64 59 1012.7
20260507011009 53 343 0.0 0.0 0.00 0.64 0.64 58 1012.7
20260507010510 53 342 0.0 0.0 0.00 0.64 0.64 59 1012.7
20260507010021 53 338 0.0 0.0 0.00 0.64 0.64 59 1012.8
20260507005508 53 338 0.0 0.0 0.00 0.64 0.64 59 1013.0
20260507005010 53 337 0.0 0.0 0.00 0.64 0.64 58 1013.0
20260507004524 53 350 0.0 2.0 0.00 0.64 0.64 58 1013.2
20260507004009 53 325 0.0 2.0 0.00 0.64 0.64 58 1013.1
20260507003512 54 272 0.0 2.0 0.00 0.64 0.64 59 1013.0
20260507003008 54 321 0.0 2.0 0.00 0.64 0.64 60 1013.0
20260507002506 54 308 0.0 2.0 0.00 0.64 0.64 59 1013.2
20260507002006 54 22 0.0 0.0 0.00 0.64 0.64 59 1013.0
20260507001519 54 292 0.0 2.0 0.00 0.64 0.64 58 1012.9
20260507001007 54 294 0.0 2.0 0.00 0.64 0.64 59 1012.8
20260507000506 54 344 0.0 2.0 0.00 0.64 0.64 60 1012.7
20260507000019 54 344 0.0 6.0 0.00 0.64 0.64 61 1012.8
20260506235508 55 333 0.0 6.0 0.00 0.64 0.64 62 1012.8
20260506235007 55 276 0.0 4.0 0.00 0.64 0.64 63 1012.7
20260506234522 55 311 0.0 1.0 0.00 0.64 0.64 65 1012.5
20260506234008 55 325 0.0 1.0 0.00 0.64 0.64 66 1012.4
20260506233510 55 331 0.0 0.0 0.00 0.64 0.64 66 1012.3
20260506233026 55 320 0.0 3.0 0.00 0.64 0.64 65 1012.2
20260506232509 55 333 0.0 3.0 0.00 0.64 0.64 64 1012.2
20260506232001 55 282 0.0 3.0 0.00 0.64 0.64 64 1012.1
20260506231511 55 285 0.0 3.0 0.00 0.64 0.64 63 1012.1
20260506231006 56 334 0.0 3.0 0.00 0.64 0.64 63 1012.0
20260506230505 56 330 0.0 3.0 0.00 0.64 0.64 62 1011.9
20260506230009 56 297 0.0 2.0 0.00 0.64 0.64 62 1011.8
20260506225505 56 306 0.0 2.0 0.00 0.64 0.64 65 1011.7
20260506225006 56 284 0.0 0.0 0.00 0.64 0.64 67 1011.7
20260506224508 56 329 0.0 0.0 0.00 0.64 0.64 68 1011.7
20260506224003 56 334 0.0 2.0 0.00 0.64 0.64 66 1011.7
20260506223503 56 309 0.0 2.0 0.00 0.64 0.64 66 1011.7
20260506223014 56 284 0.0 0.0 0.00 0.64 0.64 65 1011.7
20260506222504 56 346 0.0 2.0 0.00 0.64 0.64 66 1011.6
20260506222004 56 346 0.0 2.0 0.00 0.64 0.64 66 1011.7
20260506221508 56 321 0.0 2.0 0.00 0.64 0.64 67 1011.7
20260506221004 56 320 0.0 2.0 0.00 0.64 0.64 66 1011.6